Temp
-12 -12 -12 -12 -12 -12 -12 -12 -12 -12 -12 -12 -12 -12 -12 -12 -12 -12 -13 -13 -13 -13 -13 -13 -14 -14 -14 -14 -14 -15 -15 -15 -15 -15 -15 -15 -16 -16 -16 -16 -16 -16
-12 -12 -12 -12 -12 -12 -12 -12 -12 -12 -12 -12 -12 -12 -12 -12 -12 -13 -13 -13 -13 -13 -13 -13 -14 -14 -14 -15 -15 -15 -15 -15 -15 -15 -15 -16 -16 -16 -16 -16 -16 -16
-12 -12 -12 -12 -12 -12 -12 -12 -12 -12 -12 -12 -12 -12 -12 -12 -12 -13 -13 -13 -13 -13 -13 -13 -14 -14 -15 -15 -15 -15 -15 -15 -15 -15 -15 -16 -16 -16 -16 -16 -16 -16
-12 -12 -12 -12 -12 -12 -12 -12 -12 -12 -12 -12 -12 -12 -12 -12 -12 -13 -13 -13 -13 -13 -13 -14 -14 -14 -15 -15 -15 -15 -15 -15 -15 -15 -16 -16 -16 -16 -16 -16 -16 -16
-12 -12 -12 -12 -12 -12 -12 -12 -12 -12 -12 -12 -12 -12 -12 -12 -13 -13 -13 -13 -13 -13 -13 -14 -14 -14 -15 -15 -15 -15 -15 -15 -15 -15 -16 -16 -16 -16 -16 -16 -16 -16
-12 -12 -12 -12 -12 -12 -12 -12 -12 -12 -12 -12 -12 -12 -12 -13 -13 -13 -13 -13 -13 -13 -13 -14 -14 -14 -15 -15 -15 -15 -15 -15 -15 -15 -16 -16 -16 -16 -16 -16 -16 -16
-12 -12 -12 -12 -12 -12 -12 -12 -12 -12 -12 -12 -12 -12 -13 -13 -13 -13 -13 -14 -14 -14 -14 -14 -14 -14 -15 -15 -15 -15 -15 -15 -15 -15 -15 -16 -16 -16 -16 -16 -16 -16
-12 -12 -12 -12 -12 -12 -12 -12 -12 -12 -12 -12 -12 -13 -13 -13 -13 -13 -13 -14 -14 -14 -14 -14 -14 -14 -15 -15 -15 -15 -15 -15 -15 -15 -15 -16 -16 -16 -16 -16 -16 -16
-12 -12 -12 -12 -12 -12 -12 -12 -12 -12 -12 -12 -12 -13 -13 -13 -13 -13 -13 -14 -14 -14 -14 -14 -14 -14 -15 -15 -15 -15 -15 -15 -15 -15 -15 -16 -16 -16 -16 -16 -16 -16
-12 -12 -12 -12 -12 -12 -12 -12 -12 -12 -12 -12 -13 -13 -13 -13 -13 -13 -13 -14 -14 -14 -14 -14 -14 -14 -15 -15 -15 -15 -15 -15 -15 -15 -16 -16 -16 -16 -15 -15 -15 -15
-12 -12 -12 -12 -12 -12 -12 -12 -12 -12 -12 -13 -13 -13 -13 -13 -13 -13 -13 -14 -14 -14 -14 -14 -14 -14 -15 -15 -15 -15 -15 -15 -15 -15 -15 -16 -15 -15 -15 -15 -15 -15
-12 -12 -12 -13 -13 -13 -12 -12 -12 -12 -13 -13 -13 -13 -13 -13 -13 -13 -13 -14 -14 -14 -14 -14 -14 -14 -15 -15 -15 -15 -15 -15 -15 -15 -15 -15 -15 -15 -15 -15 -15 -15
-12 -13 -13 -13 -13 -13 -13 -12 -12 -13 -13 -13 -13 -13 -13 -13 -13 -13 -13 -13 -14 -14 -14 -14 -14 -14 -15 -15 -15 -15 -15 -15 -15 -15 -15 -15 -15 -15 -15 -15 -15 -16
-12 -13 -13 -13 -13 -13 -13 -13 -13 -13 -13 -13 -13 -13 -13 -13 -13 -13 -13 -13 -14 -14 -14 -14 -14 -14 -14 -15 -15 -15 -15 -15 -15 -16 -16 -15 -15 -15 -15 -15 -15 -15
-13 -13 -13 -13 -13 -13 -13 -13 -13 -13 -13 -13 -13 -13 -13 -13 -13 -13 -13 -13 -14 -14 -14 -14 -14 -14 -14 -14 -14 -14 -15 -15 -15 -15 -15 -15 -15 -15 -15 -15 -15 -15
-13 -13 -13 -13 -13 -13 -13 -13 -13 -13 -13 -13 -13 -13 -13 -13 -13 -13 -13 -13 -13 -14 -14 -14 -14 -14 -14 -14 -14 -14 -14 -15 -15 -15 -15 -15 -15 -15 -15 -15 -15 -15
-13 -13 -13 -13 -13 -13 -13 -13 -13 -13 -13 -13 -13 -13 -13 -13 -13 -13 -13 -13 -13 -13 -14 -14 -14 -14 -14 -14 -14 -14 -14 -14 -15 -15 -15 -15 -15 -15 -15 -15 -15 -15
-13 -13 -13 -13 -13 -13 -13 -13 -13 -13 -13 -13 -13 -13 -13 -13 -13 -13 -13 -13 -13 -13 -14 -14 -14 -14 -14 -14 -14 -14 -14 -14 -14 -15 -15 -15 -15 -15 -15 -15 -15 -15
-13 -13 -13 -13 -13 -13 -13 -13 -13 -13 -13 -13 -13 -13 -13 -13 -13 -13 -13 -13 -13 -13 -13 -14 -14 -14 -14 -14 -14 -14 -14 -14 -14 -15 -15 -15 -15 -15 -15 -15 -15 -15
-13 -13 -13 -13 -13 -13 -13 -13 -13 -13 -13 -13 -13 -13 -13 -13 -13 -13 -13 -13 -13 -13 -13 -14 -14 -14 -14 -14 -14 -14 -14 -14 -14 -15 -15 -15 -15 -15 -15 -15 -15 -15
-13 -13 -13 -13 -13 -13 -13 -13 -13 -13 -13 -13 -13 -13 -13 -13 -13 -13 -13 -13 -13 -13 -13 -14 -14 -14 -14 -14 -14 -14 -14 -14 -15 -15 -15 -15 -15 -15 -15 -15 -15 -15
-13 -13 -13 -14 -14 -14 -14 -14 -13 -13 -13 -13 -13 -13 -13 -13 -13 -13 -13 -13 -13 -13 -14 -14 -14 -14 -14 -14 -14 -14 -14 -14 -15 -15 -15 -15 -15 -15 -15 -15 -15 -15
-13 -14 -14 -14 -14 -14 -14 -14 -14 -14 -14 -13 -13 -13 -13 -13 -13 -13 -13 -14 -14 -14 -14 -14 -14 -14 -14 -14 -14 -14 -14 -14 -15 -15 -15 -15 -15 -15 -15 -15 -15 -15
-14 -14 -14 -14 -14 -14 -14 -14 -14 -14 -14 -14 -14 -14 -13 -13 -13 -13 -14 -14 -14 -14 -14 -14 -14 -14 -14 -15 -15 -15 -15 -15 -15 -15 -15 -15 -15 -15 -15 -15 -15 -16
-14 -14 -14 -14 -14 -14 -14 -14 -14 -14 -14 -14 -14 -14 -13 -13 -13 -14 -14 -14 -14 -14 -14 -14 -14 -14 -14 -15 -15 -15 -15 -15 -15 -15 -15 -15 -15 -15 -15 -16 -16 -16
-14 -14 -14 -14 -14 -14 -14 -14 -14 -14 -14 -14 -14 -14 -14 -13 -13 -14 -14 -14 -14 -14 -14 -14 -14 -14 -15 -15 -15 -15 -15 -15 -15 -15 -15 -15 -15 -15 -16 -16 -16 -16
Height
5800 5800 5800 5801 5801 5801 5802 5803 5803 5803 5803 5803 5802 5801 5801 5801 5801 5800 5800 5799 5799 5798 5798 5797 5797 5797 5797 5798 5798 5797 5797 5797 5797 5797 5797 5798 5797 5797 5797 5796 5796 5795
5797 5797 5797 5798 5798 5799 5800 5801 5801 5801 5801 5800 5800 5799 5799 5799 5798 5798 5797 5797 5796 5796 5796 5795 5795 5795 5795 5795 5795 5795 5795 5795 5796 5796 5796 5796 5795 5795 5795 5794 5794 5793
5794 5794 5795 5795 5795 5796 5797 5798 5798 5798 5798 5798 5798 5797 5797 5796 5796 5796 5795 5795 5794 5794 5793 5793 5793 5793 5793 5793 5793 5793 5793 5794 5794 5794 5793 5793 5793 5793 5792 5792 5791 5791
5791 5791 5792 5792 5793 5794 5795 5796 5796 5796 5796 5796 5795 5795 5794 5794 5793 5793 5793 5793 5792 5792 5791 5791 5791 5791 5791 5791 5791 5791 5791 5792 5792 5792 5791 5791 5791 5790 5790 5789 5789 5788
5788 5789 5789 5790 5790 5792 5792 5793 5793 5794 5794 5794 5793 5792 5792 5791 5791 5791 5791 5791 5790 5790 5789 5789 5789 5789 5789 5789 5789 5789 5789 5790 5790 5789 5789 5789 5788 5788 5788 5787 5786 5785
5785 5786 5787 5787 5788 5789 5790 5791 5791 5791 5791 5791 5790 5790 5790 5789 5789 5789 5789 5788 5788 5788 5787 5787 5786 5786 5786 5786 5787 5787 5787 5787 5787 5787 5787 5786 5786 5785 5785 5784 5784 5783
5783 5783 5784 5785 5785 5787 5787 5788 5788 5789 5789 5788 5788 5788 5787 5787 5787 5787 5787 5786 5786 5785 5785 5784 5784 5784 5784 5784 5784 5784 5785 5785 5784 5784 5784 5783 5783 5783 5782 5782 5781 5780
5780 5781 5781 5782 5783 5784 5785 5785 5786 5786 5786 5786 5786 5785 5785 5785 5785 5785 5784 5784 5784 5783 5783 5782 5782 5782 5782 5782 5782 5782 5782 5782 5782 5781 5781 5781 5780 5780 5780 5779 5778 5777
5777 5778 5779 5779 5780 5781 5782 5783 5783 5784 5783 5783 5783 5783 5783 5783 5783 5783 5782 5782 5781 5781 5780 5780 5780 5780 5780 5780 5780 5780 5780 5779 5779 5779 5778 5778 5777 5777 5777 5776 5775 5774
5774 5775 5776 5777 5778 5778 5779 5780 5781 5781 5781 5780 5780 5780 5780 5780 5780 5780 5780 5779 5779 5778 5778 5778 5778 5778 5777 5777 5777 5777 5777 5777 5776 5776 5775 5775 5775 5774 5774 5773 5772 5770
5772 5773 5774 5774 5775 5775 5776 5777 5778 5778 5778 5778 5778 5778 5778 5778 5778 5777 5777 5777 5777 5776 5776 5776 5776 5775 5775 5775 5775 5774 5774 5774 5774 5773 5772 5772 5772 5771 5770 5769 5768 5767
5769 5770 5771 5771 5772 5772 5773 5774 5775 5775 5775 5775 5775 5775 5775 5775 5775 5775 5774 5774 5774 5774 5774 5774 5773 5773 5773 5772 5772 5771 5771 5771 5771 5770 5770 5769 5769 5768 5767 5766 5765 5764
5767 5768 5768 5768 5769 5769 5770 5771 5772 5772 5772 5772 5772 5772 5772 5772 5772 5772 5772 5772 5772 5771 5771 5771 5771 5770 5770 5769 5769 5768 5768 5768 5768 5767 5767 5766 5766 5765 5764 5763 5762 5761
5764 5765 5765 5765 5766 5766 5767 5768 5769 5769 5769 5769 5769 5769 5769 5769 5769 5769 5769 5769 5769 5769 5768 5768 5768 5768 5767 5766 5766 5766 5765 5765 5765 5764 5763 5763 5762 5761 5760 5760 5759 5758
5760 5762 5762 5763 5763 5763 5764 5765 5766 5766 5766 5766 5766 5767 5767 5767 5767 5766 5766 5766 5766 5766 5766 5765 5765 5765 5764 5764 5763 5763 5763 5762 5761 5761 5760 5760 5759 5758 5757 5756 5755 5754
5757 5758 5759 5759 5760 5761 5761 5762 5763 5763 5763 5763 5763 5763 5764 5764 5764 5764 5764 5763 5763 5763 5763 5762 5762 5762 5761 5761 5761 5760 5760 5759 5758 5757 5757 5756 5756 5755 5754 5753 5752 5750
5754 5755 5756 5756 5757 5758 5758 5759 5759 5760 5760 5760 5760 5760 5760 5760 5761 5761 5761 5760 5760 5760 5760 5759 5759 5759 5759 5758 5758 5757 5756 5756 5755 5754 5754 5754 5753 5752 5751 5750 5749 5747
5750 5751 5752 5753 5754 5755 5755 5755 5756 5756 5756 5757 5757 5757 5757 5757 5757 5757 5758 5757 5757 5757 5756 5756 5756 5756 5756 5755 5755 5754 5753 5753 5752 5752 5751 5751 5750 5749 5748 5747 5745 5744
5746 5747 5748 5749 5750 5751 5751 5752 5752 5753 5753 5753 5753 5753 5754 5754 5754 5754 5754 5754 5754 5754 5753 5753 5753 5753 5753 5752 5752 5751 5750 5750 5750 5749 5748 5748 5747 5746 5744 5743 5742 5740
5742 5743 5744 5745 5746 5747 5747 5748 5749 5750 5750 5750 5750 5750 5751 5751 5751 5751 5751 5751 5751 5751 5750 5750 5750 5750 5750 5749 5749 5748 5747 5747 5747 5746 5745 5744 5743 5742 5741 5739 5738 5737
5738 5739 5740 5741 5742 5743 5744 5746 5747 5747 5746 5746 5747 5747 5748 5748 5748 5748 5748 5748 5748 5748 5747 5747 5747 5747 5747 5746 5746 5745 5745 5744 5744 5743 5742 5741 5740 5739 5738 5736 5735 5733
5734 5735 5736 5737 5738 5739 5741 5743 5743 5743 5743 5743 5744 5744 5744 5745 5745 5745 5745 5745 5745 5745 5744 5744 5744 5743 5743 5743 5743 5742 5742 5741 5740 5740 5739 5737 5736 5735 5734 5733 5731 5730
5730 5731 5732 5733 5734 5736 5738 5739 5740 5740 5740 5740 5740 5741 5741 5742 5742 5741 5741 5741 5741 5741 5741 5740 5740 5739 5739 5739 5739 5739 5738 5737 5737 5736 5735 5734 5733 5732 5730 5729 5728 5726
5726 5726 5727 5729 5731 5732 5734 5735 5735 5736 5737 5737 5737 5738 5738 5738 5738 5738 5738 5737 5737 5737 5737 5736 5736 5735 5735 5735 5735 5735 5734 5734 5733 5733 5732 5731 5730 5729 5727 5725 5723 5722
5721 5722 5723 5725 5727 5729 5731 5731 5731 5733 5734 5734 5734 5734 5734 5734 5734 5734 5733 5733 5733 5733 5733 5732 5731 5730 5731 5731 5732 5731 5730 5730 5730 5730 5729 5728 5727 5725 5723 5721 5719 5718
5717 5717 5719 5720 5722 5725 5727 5728 5729 5731 5732 5731 5729 5729 5730 5729 5729 5729 5730 5730 5730 5730 5729 5728 5726 5726 5727 5728 5728 5728 5727 5727 5727 5726 5725 5725 5723 5721 5719 5717 5716 5714
Wind_Speed
25 24 23 23 24 24 23 21 20 20 20 20 20 21 21 20 18 16 16 16 17 16 15 15 14 13 14 14 14 13 12 12 13 13 14 15 16 17 17 18 19 20
25 23 22 23 24 24 23 22 21 20 20 20 21 21 21 20 18 17 16 17 17 17 16 15 14 14 14 14 14 13 13 13 14 14 15 16 17 18 18 19 20 21
23 22 22 24 24 24 23 21 21 20 20 20 21 21 21 20 18 17 16 17 17 17 16 15 15 15 15 14 14 13 14 15 15 16 17 18 18 19 20 21 21 22
22 22 23 24 24 23 22 21 21 20 20 20 20 21 20 20 18 17 16 17 17 17 17 16 15 15 15 14 14 14 15 16 17 17 18 19 19 20 21 22 23 23
21 22 23 24 24 23 22 21 21 20 20 20 20 20 20 19 18 17 17 17 18 18 17 17 16 15 15 15 14 15 16 17 18 19 19 20 20 21 23 23 23 23
20 22 23 24 24 23 22 21 21 20 20 20 20 20 20 18 18 17 17 18 18 18 18 17 16 15 15 15 15 16 17 18 19 20 20 21 21 23 24 24 24 24
21 23 24 24 24 23 22 21 20 20 20 20 20 20 19 18 18 17 17 18 18 18 19 18 17 16 16 16 16 17 18 19 20 21 21 22 23 24 25 25 24 24
22 23 24 24 24 23 22 21 20 20 20 21 21 20 19 18 18 17 17 18 18 18 19 18 18 17 16 17 17 18 19 20 21 21 22 23 24 25 26 25 25 25
23 23 23 24 24 24 23 21 21 21 21 21 21 20 19 19 18 17 17 18 18 18 19 19 18 17 17 17 18 19 19 20 21 22 23 24 26 26 26 26 26 26
23 22 23 24 25 24 23 22 21 21 21 21 21 20 20 19 19 18 18 18 18 19 19 19 18 18 18 18 19 19 20 21 22 23 25 26 26 26 26 26 26 27
22 22 23 24 25 25 23 22 22 21 21 21 21 21 20 20 19 19 19 19 19 19 19 19 19 18 18 19 19 20 21 22 23 24 26 27 27 27 27 27 27 28
22 22 23 25 25 25 24 23 22 21 21 21 21 21 21 20 20 20 20 20 19 19 19 19 19 18 18 19 20 21 22 23 24 25 26 27 27 27 28 28 28 29
23 23 24 25 26 26 25 23 22 21 20 21 21 21 21 21 20 21 21 20 19 19 19 20 20 19 19 20 21 22 23 24 25 26 26 27 27 27 28 29 29 30
24 24 25 26 26 26 25 23 21 20 21 22 22 22 21 21 20 21 21 20 19 19 20 20 20 20 20 21 22 23 23 24 25 26 26 26 27 28 29 29 30 31
25 26 26 26 27 26 25 23 21 21 21 22 22 22 22 21 20 21 21 20 20 20 20 21 21 21 21 21 22 23 23 24 25 26 26 27 27 28 29 30 31 32
27 27 27 27 28 27 25 23 22 21 22 23 23 23 22 21 21 21 21 20 20 20 21 22 22 22 22 22 22 23 23 24 25 26 26 27 27 28 29 30 32 33
29 28 28 28 28 27 25 24 23 22 22 23 24 24 23 22 21 21 21 21 21 21 22 22 23 23 23 23 23 23 24 25 26 26 26 26 27 28 29 30 32 33
30 29 29 29 29 27 26 25 24 23 23 24 25 25 24 23 22 22 22 22 22 23 23 24 24 24 24 24 24 24 25 26 26 27 26 27 28 28 29 31 32 33
31 30 30 30 29 28 27 26 25 24 24 25 26 25 24 23 22 22 23 23 24 24 25 25 25 25 25 25 25 26 27 27 27 27 27 28 29 29 30 31 32 33
33 32 31 31 30 30 28 26 25 24 25 26 26 25 24 23 23 23 23 24 25 26 26 27 27 27 26 26 26 27 28 28 28 27 28 29 30 30 32 32 33 33
34 34 33 32 32 31 29 27 25 25 26 26 25 24 24 23 23 23 24 25 26 27 28 28 28 27 27 27 27 28 28 29 29 29 30 31 31 32 33 33 32 32
35 35 35 34 33 32 30 27 26 26 26 26 26 26 25 23 22 23 24 26 27 28 28 29 28 28 28 28 28 29 29 30 30 30 31 32 32 32 32 32 32 33
36 37 36 35 34 33 30 28 27 27 28 28 28 27 26 25 24 25 26 26 27 27 28 28 28 29 29 29 29 30 30 30 31 31 31 31 32 32 32 33 35 37
37 37 37 36 34 33 31 29 29 29 29 30 29 28 27 27 27 27 27 26 26 26 27 28 29 30 30 30 29 30 31 31 31 31 30 30 31 32 35 37 39 39
37 38 38 36 35 34 32 31 32 32 31 31 30 28 27 27 27 28 28 27 26 26 27 28 30 31 30 29 29 30 31 31 30 30 30 30 32 34 37 38 38 37
38 39 38 37 36 34 32 31 32 33 32 30 30 30 29 27 27 27 26 26 26 25 25 28 31 31 29 29 29 29 29 30 30 30 30 32 34 37 38 38 37 37
Wind_Direction
278 276 274 270 267 263 259 258 259 263 267 269 271 272 272 271 271 274 280 284 286 285 283 283 282 278 273 272 272 273 270 266 263 264 267 270 273 277 280 281 283 287
275 273 271 267 263 259 256 255 257 261 265 269 272 272 270 270 270 273 279 283 283 283 282 282 281 276 273 272 271 271 268 264 264 265 267 270 273 277 280 282 285 288
271 268 266 261 258 255 253 253 257 261 265 269 270 270 269 269 270 273 278 281 281 281 281 281 279 275 273 270 269 269 265 262 263 264 266 270 274 278 281 283 286 289
267 262 259 257 254 252 251 252 257 262 266 268 268 267 268 269 271 273 277 280 279 279 280 279 276 273 270 268 268 266 263 261 260 262 266 270 274 278 281 284 286 289
262 258 256 254 251 250 251 252 257 262 265 265 264 265 267 268 271 273 276 277 277 278 279 278 275 271 268 267 268 266 262 259 259 262 265 270 273 276 280 283 286 289
257 255 252 250 249 249 250 252 257 262 263 262 262 263 265 267 270 274 275 275 276 277 277 277 275 271 267 267 268 266 263 259 260 262 266 270 274 276 279 282 286 290
251 249 247 247 247 249 250 253 257 260 259 259 259 260 262 266 270 274 274 274 275 276 276 277 275 270 266 265 266 266 264 261 262 264 268 271 274 277 279 283 288 292
247 246 246 246 247 249 250 252 256 258 257 257 258 259 261 265 270 273 274 274 274 275 276 277 274 269 264 264 265 266 265 264 264 267 270 273 275 277 280 284 289 293
244 245 245 246 247 249 250 253 256 257 257 257 257 259 261 264 270 273 274 273 272 273 275 278 276 269 263 263 265 266 266 266 267 268 271 273 275 278 282 287 291 294
244 244 244 245 247 249 251 253 256 257 257 257 257 258 261 265 270 273 273 272 271 272 274 278 278 271 263 261 263 265 266 266 267 269 272 274 277 280 284 288 291 295
243 243 243 244 246 249 251 253 256 256 257 257 256 257 261 266 270 272 272 271 270 271 274 278 280 274 265 260 260 262 264 266 268 271 273 275 279 282 285 288 292 295
242 241 242 244 246 248 251 254 257 257 257 255 255 257 262 266 270 271 271 271 271 272 274 278 280 277 268 261 260 261 263 266 269 271 274 278 281 284 286 289 293 295
240 240 241 243 246 248 251 255 257 257 255 253 254 257 261 265 269 272 272 272 272 271 272 276 279 276 270 264 262 262 264 266 269 273 276 280 283 285 288 290 293 294
239 239 240 243 246 249 252 255 256 255 253 251 252 255 259 264 268 273 274 273 271 270 270 274 277 276 274 270 268 267 267 269 272 275 278 281 284 286 289 291 293 294
239 239 240 243 247 250 252 254 255 253 250 249 250 253 257 262 267 272 274 272 270 269 269 272 276 278 278 277 276 275 274 274 276 278 280 283 286 288 291 293 295 296
240 240 241 245 248 250 252 253 253 252 250 248 248 251 256 260 265 270 273 272 271 270 270 273 276 279 280 280 282 282 281 280 280 281 284 287 290 292 294 295 296 297
242 243 243 246 248 250 252 253 253 252 249 246 246 249 253 257 262 267 270 272 273 273 273 274 276 278 280 282 283 284 284 284 284 286 289 292 294 295 295 296 296 297
244 244 244 246 249 251 252 253 254 253 249 246 245 248 251 255 260 264 267 271 273 274 274 275 276 278 280 281 283 284 285 286 287 290 293 294 294 294 293 294 296 299
243 245 246 248 249 251 252 253 254 253 249 246 245 247 250 255 259 263 266 269 271 273 274 276 277 278 279 281 282 283 284 286 289 292 293 293 293 292 292 293 296 299
244 246 247 248 250 251 253 254 255 252 248 245 246 248 251 255 258 262 265 268 271 272 273 275 276 278 280 281 282 282 284 286 289 291 291 290 291 291 292 294 295 296
245 246 247 249 250 252 254 256 254 250 248 247 248 251 252 254 258 262 267 270 272 273 274 276 278 281 281 282 282 283 284 286 287 288 288 289 290 291 293 294 295 296
244 246 247 249 250 252 254 255 252 249 248 249 251 252 252 253 256 262 266 270 273 275 278 279 281 282 282 282 283 283 284 285 286 287 288 289 290 292 294 295 296 297
241 244 247 248 249 251 254 254 251 248 247 249 251 250 250 251 253 258 263 267 271 275 278 280 281 282 282 283 284 284 285 286 286 287 288 289 290 292 294 296 297 297
238 241 244 246 247 250 253 253 251 248 247 250 251 253 254 254 255 259 263 265 268 273 276 278 279 279 280 282 284 284 285 285 287 287 287 288 290 293 295 297 297 296
235 238 240 243 245 247 251 254 253 251 250 249 250 252 256 257 258 260 261 262 268 274 277 276 275 275 276 280 283 285 285 286 286 286 286 288 291 293 296 296 295 294
234 236 238 241 242 244 250 254 256 254 250 246 248 251 254 257 259 257 260 266 272 274 276 277 275 273 276 280 282 283 285 285 284 285 286 289 291 293 294 294 294 294